星链-5145 (STARLINK-5145 )

导读

STARLINK-5145是美国SpaceX公司星链(Starlink)卫星互联网项目的一员,于2022年10月5日发射升空,属于星链第二代低轨卫星群。作为全球规模最大低轨卫星星座的组成部分,它运行在近地轨道,为全球偏远地区、海洋等传统网络盲区提供高速低延迟宽带互联网接入,同时支撑星链在应急通信、航空海事联网等多场景的服务拓展,也成为SpaceX构建全球卫星互联网布局的重要节点。

基本信息
目录编号:
54008
目录名称:
STARLINK-5145
国际标识:
2022-125AW
轨道中心:
EARTH
卫星名称:
星链-5145
卫星全名:
星链-5145 (STARLINK-5145 )
卫星状态:
在轨 (已飞行1431 天)
发射日期:
2022-10-05 UTC
国别 :
美国 (US)
星等 :
--
轨道信息
数据来源 国际轨道数据 AOE轨道数据
星历时间 2026-09-05T08:58:45+0800
9小时前
查看轨道信息
2026-08-29T23:00:00+0800
6天前
查看轨道信息
半长轴 6840.903km 6840.859km
偏心率 0.0001066 0.0001037
轨道倾角 53.161° 53.160°
近地点辐角 85.819° 55.755°
升交点赤经 109.673° 139.667°
平近点角 274.294° 124.956°
近地点 462.036km 462.012km
远地点 463.496km 463.432km
周期 93.849分钟 93.848分钟
每日圈数 15.343791 15.343939
详细信息
固有亮度:
5
最大亮度:
2.5
卫星平台:
Starlink v1.5
覆盖范围:
全球
运营商:
太空探索技术公司
运营商所在国:
美国
制造商(研发单位):
太空探索技术公司
制造商所在国:
美国
使用方式:
暂无
卫星简介
星链(Starlink)计划是由太空探索技术公司(SpaceX)提出的一个巨型低轨卫星互联网星座项目,计划在2019年至2024年间在太空搭建由约1.2万颗卫星组成的“星链”网络,其中1584颗将部署在地球上空550千米处的近地轨道,并从2020年开始工作。该卫星仍在工作。
2D轨道图
3D轨道图
轨道高度分析图
轨道倾角分析图
轨道综合分析图
查看轨道综合分析图
交会数据列表
事件ID 空间交会对象 最接近时刻(TCA) 交会距离 交会风险概率(CRP) 交会风险指数(CRI) 操作
CDM_260907-122605-400806-615321
2026-09-07T
12:26:33+0000
0.529 km
远距离
1.596182E-4 高风险 0.79
CDM_260906-083805-400806-295621
2026-09-06T
08:38:26+0000
0.335 km
远距离
1.027037E-4 高风险 0.75
CDM_260906-092505-400806-295621
2026-09-06T
09:25:20+0000
0.824 km
远距离
6.958952E-6 低风险 0.52
CDM_260907-140005-400806-615321
2026-09-07T
14:00:21+0000
1.976 km
极远距离
2.599043E-6 低风险 0.43
CDM_260907-105205-400806-615321
2026-09-07T
10:52:46+0000
2.546 km
极远距离
1.509947E-6 低风险 0.39
CDM_260906-105905-400806-295621
2026-09-06T
10:59:08+0000
2.146 km
极远距离
4.472484E-7 极低风险 0.28
CDM_260906-070405-400806-295621
2026-09-06T
07:04:39+0000
2.641 km
极远距离
3.280912E-7 极低风险 0.25